Hourly Data Report for December 01, 2021

MOUNT FOREST (AUT)
ONTARIO
Current Station Operator: ECCC - MSC

43°59'00.000" N
80°45'00.000" W
414.50 m
6145504
71631
WLS

Download Data

Hourly Data (December 2021)
Hourly Data Report for December 1, 2021
TIME
LST
Temp Definition
°C
Dew Point Definition
°C
Rel Hum Definition
%
Precip. Amount Definition
mm

Wind Dir Definition
10's deg

Wind Spd Definition
km/h
Visibility Definition
km
Stn Press Definition
kPa
Hmdx Definition


Wind Chill Definition


Weather Definition


00:00 0.5 -5.1 66 0.0 30 20   96.35     LegendNANA
01:00 0.3 -5.5 65 0.0 31 17   96.42     LegendNANA
02:00 -0.1 -5.4 68 0.0 29 10   96.53   -3 LegendNANA
03:00 0.2 -3.8 74 0.0 29 11   96.56     LegendNANA
04:00 -0.2 -3.9 76 0.0 28 10   96.60   -4 LegendNANA
05:00 -1.2 -4.9 76 0.0 27 7   96.64   -4 LegendNANA
06:00 -2.6 -5.9 78 0.0 25 5   96.69   -5 LegendNANA
07:00 -2.7 -5.6 80 0.0 23 5   96.73   -5 LegendNANA
08:00 -2.2 -5.3 79 0.0 24 7   96.79   -5 LegendNANA
09:00 -1.1 -4.5 78 0.0 21 9   96.79   -4 LegendNANA
10:00 -0.6 -3.1 83 0.0 21 10   96.81   -4 LegendNANA
11:00 0.7 -3.2 75 0.0 22 10   96.76     LegendNANA
12:00 1.1 -3.6 71 0.0 21 14   96.68     LegendNANA
13:00 1.0 -3.1 74 0.0 21 13   96.59     LegendNANA
14:00 0.9 -3.7 71 0.0 21 14   96.56     LegendNANA
15:00 1.0 -3.7 71 0.0 19 14   96.46     LegendNANA
16:00 1.1 -3.0 74 0.0 18 9   96.45     LegendNANA
17:00 1.0 -1.7 82 0.0 17 13   96.39     LegendNANA
18:00 1.1 -1.2 84 0.0 17 17   96.29     LegendNANA
19:00 0.8 -1.4 85 0.0 17 17   96.13     LegendNANA
20:00 1.0 -1.6 83 0.0 17 21   96.04     LegendNANA
21:00 1.4 -1.6 81 0.0 17 21   95.90     LegendNANA
22:00 1.7 -1.0 82 0.0 18 19   95.80     LegendNANA
23:00 1.9 0.6 92 0.0 19 18   95.70     LegendNANA

Notes on Data Quality.

Legend

  • E = Estimated
  • M = Missing
  • NA = Not Available*
  • [empty] = Indicates an unobserved value
Date modified: